Find Starlink 5246

NORAD ID: 54198 Int'l Des: 2022-141 Owner: SPXS Country: US Constellation: starlink operational
LEOCIRCULAR

Live Position

Loading 3D Globe...

About Starlink 5246

Description loading...

Upcoming Passes

Passes for default location (London). Set your location on the main map for personalized predictions.

Altitude History

Loading altitude history...

Two-Line Element Set

1 54198U 22141AT 26106.93381441 .00000744 00000-0 64816-4 0 9999
2 54198 53.2200 182.2796 0001168 72.3396 287.7724 15.08838464191771
Epoch: Apr 16, 2026 • Age: 14 hours

Current Status

Altitude 541.7 km
Velocity 7.59 km/s
Sub-Earth Point -7.05°S, 138.46°E
Launch Date Oct 28, 2022
Age 3.4 years
Type internet

Technical Details

Classification Payload
Mass 305.00 kg
Dry Mass 290.00 kg
Total Mass 305.00 kg
Length 0.20 m
Diameter 2.80 m
Span 9.00 m
Shape Box + pan
Manufacturer SPXS
Bus Type Starlink
Phase Status In Orbit
Owner/State SPXS/US

Most Searched